| time (UTC) | temp F | wind direction | speed MPH | gust MPH | rain 1hr in | rain 24hr in | rain mn in | humidity % | barometer mb |
| 20260508042041 | 61 | 293 | 2.0 | 4.0 | 0.00 | 0.00 | 0.00 | 47 | 1015.4 |
| 20260508041041 | 62 | 180 | 1.0 | 3.0 | 0.00 | 0.00 | 0.00 | 46 | 1015.4 |
| 20260508040016 | 62 | 293 | 3.0 | 6.0 | 0.00 | 0.00 | 0.00 | 45 | 1015.4 |
| 20260508035018 | 62 | 293 | 2.0 | 7.0 | 0.00 | 0.00 | 0.00 | 45 | 1015.2 |
| 20260508034017 | 62 | 270 | 3.0 | 10.0 | 0.00 | 0.00 | 0.00 | 44 | 1015.1 |
| 20260508033017 | 62 | 203 | 2.0 | 4.0 | 0.00 | 0.00 | 0.00 | 44 | 1015.1 |
| 20260508032016 | 61 | 270 | 1.0 | 3.0 | 0.00 | 0.00 | 0.00 | 44 | 1014.8 |
| 20260508031016 | 62 | 293 | 1.0 | 2.0 | 0.00 | 0.00 | 0.00 | 41 | 1014.8 |
| 20260508030017 | 63 | 293 | 1.0 | 3.0 | 0.00 | 0.00 | 0.00 | 39 | 1014.7 |
| 20260508025017 | 63 | 270 | 1.0 | 5.0 | 0.00 | 0.00 | 0.00 | 37 | 1014.7 |
| 20260508024016 | 64 | 293 | 1.0 | 4.0 | 0.00 | 0.00 | 0.00 | 35 | 1014.7 |
| 20260508023016 | 64 | 315 | 2.0 | 7.0 | 0.00 | 0.00 | 0.00 | 35 | 1014.7 |
| 20260508022016 | 65 | 248 | 2.0 | 4.0 | 0.00 | 0.00 | 0.00 | 31 | 1014.7 |
| 20260508021016 | 66 | 270 | 1.0 | 5.0 | 0.00 | 0.00 | 0.00 | 30 | 1014.6 |
| 20260508020016 | 66 | 293 | 2.0 | 9.0 | 0.00 | 0.00 | 0.00 | 30 | 1014.6 |
| 20260508015016 | 67 | 315 | 3.0 | 11.0 | 0.00 | 0.00 | 0.00 | 30 | 1014.7 |
| 20260508014016 | 68 | 248 | 3.0 | 11.0 | 0.00 | 0.00 | 0.00 | 31 | 1014.7 |
| 20260508013016 | 68 | 203 | 1.0 | 3.0 | 0.00 | 0.00 | 0.00 | 31 | 1014.7 |
| 20260508012016 | 69 | 270 | 5.0 | 10.0 | 0.00 | 0.00 | 0.00 | 28 | 1014.9 |
| 20260508011016 | 69 | 270 | 4.0 | 13.0 | 0.00 | 0.00 | 0.00 | 28 | 1014.9 |
| 20260508010016 | 69 | 270 | 4.0 | 15.0 | 0.00 | 0.00 | 0.00 | 27 | 1014.8 |
| 20260508005016 | 69 | 270 | 2.0 | 7.0 | 0.00 | 0.00 | 0.00 | 29 | 1015.0 |
| 20260508004036 | 68 | 270 | 4.0 | 12.0 | 0.00 | 0.00 | 0.00 | 27 | 1014.9 |
| 20260508003017 | 69 | 270 | 4.0 | 11.0 | 0.00 | 0.00 | 0.00 | 25 | 1014.8 |
| 20260508002016 | 70 | 203 | 1.0 | 4.0 | 0.00 | 0.00 | 0.00 | 27 | 1014.8 |
| 20260508001016 | 69 | 270 | 4.0 | 14.0 | 0.00 | 0.00 | 0.00 | 24 | 1014.7 |
| 20260508000016 | 70 | 270 | 5.0 | 15.0 | 0.00 | 0.00 | 0.00 | 22 | 1014.7 |
| 20260507235036 | 70 | 270 | 4.0 | 9.0 | 0.00 | 0.00 | 0.00 | 26 | 1014.9 |
| 20260507234016 | 70 | 270 | 4.0 | 10.0 | 0.00 | 0.00 | 0.00 | 22 | 1014.8 |
| 20260507233016 | 70 | 248 | 5.0 | 14.0 | 0.00 | 0.00 | 0.00 | 22 | 1014.8 |
| 20260507232017 | 70 | 270 | 7.0 | 15.0 | 0.00 | 0.00 | 0.00 | 21 | 1015.0 |
| 20260507231016 | 69 | 293 | 6.0 | 19.0 | 0.00 | 0.00 | 0.00 | 24 | 1015.0 |
| 20260507230036 | 69 | 225 | 6.0 | 13.0 | 0.00 | 0.00 | 0.00 | 25 | 1015.1 |
| 20260507225016 | 70 | 270 | 5.0 | 14.0 | 0.00 | 0.00 | 0.00 | 29 | 1015.1 |
| 20260507224018 | 70 | 248 | 6.0 | 15.0 | 0.00 | 0.00 | 0.00 | 28 | 1015.3 |
| 20260507223016 | 69 | 270 | 7.0 | 18.0 | 0.00 | 0.00 | 0.00 | 26 | 1015.5 |
| 20260507222016 | 70 | 270 | 7.0 | 16.0 | 0.00 | 0.00 | 0.00 | 28 | 1015.5 |
| 20260507221016 | 70 | 270 | 5.0 | 14.0 | 0.00 | 0.00 | 0.00 | 29 | 1015.7 |
| 20260507220016 | 69 | 293 | 6.0 | 15.0 | 0.00 | 0.00 | 0.00 | 33 | 1015.6 |
| 20260507215017 | 69 | 248 | 5.0 | 13.0 | 0.00 | 0.00 | 0.00 | 34 | 1015.8 |
| 20260507214015 | 68 | 270 | 7.0 | 15.0 | 0.00 | 0.00 | 0.00 | 31 | 1015.8 |
| 20260507213016 | 68 | 225 | 5.0 | 12.0 | 0.00 | 0.00 | 0.00 | 37 | 1015.9 |
| 20260507212017 | 68 | 338 | 6.0 | 17.0 | 0.00 | 0.00 | 0.00 | 42 | 1016.0 |
| 20260507211037 | 68 | 225 | 5.0 | 12.0 | 0.00 | 0.00 | 0.00 | 39 | 1016.0 |
| 20260507210015 | 68 | 270 | 5.0 | 12.0 | 0.00 | 0.00 | 0.00 | 42 | 1016.1 |
| 20260507205017 | 68 | 248 | 4.0 | 17.0 | 0.00 | 0.00 | 0.00 | 48 | 1016.1 |
| 20260507204016 | 68 | 270 | 5.0 | 16.0 | 0.00 | 0.00 | 0.00 | 45 | 1016.1 |
| 20260507203015 | 67 | 270 | 6.0 | 22.0 | 0.00 | 0.00 | 0.00 | 44 | 1016.2 |
| 20260507202016 | 67 | 315 | 6.0 | 14.0 | 0.00 | 0.00 | 0.00 | 46 | 1016.2 |
| 20260507201015 | 67 | 315 | 7.0 | 17.0 | 0.00 | 0.00 | 0.00 | 47 | 1016.4 |
| 20260507200015 | 66 | 315 | 5.0 | 23.0 | 0.00 | 0.00 | 0.00 | 50 | 1016.5 |
| 20260507195016 | 66 | 315 | 6.0 | 15.0 | 0.00 | 0.00 | 0.00 | 46 | 1016.8 |
| 20260507194021 | 66 | 0 | 5.0 | 14.0 | 0.00 | 0.00 | 0.00 | 47 | 1016.5 |
| 20260507193037 | 65 | 270 | 5.0 | 16.0 | 0.00 | 0.00 | 0.00 | 48 | 1016.9 |
| 20260507192017 | 65 | 270 | 5.0 | 13.0 | 0.00 | 0.00 | 0.00 | 51 | 1017.1 |
| 20260507191038 | 65 | 270 | 4.0 | 15.0 | 0.00 | 0.00 | 0.00 | 55 | 1017.2 |
| 20260507190016 | 64 | 225 | 5.0 | 11.0 | 0.00 | 0.00 | 0.00 | 54 | 1017.3 |
| 20260507185017 | 64 | 248 | 4.0 | 10.0 | 0.00 | 0.00 | 0.00 | 55 | 1017.3 |
| 20260507184017 | 63 | 270 | 4.0 | 11.0 | 0.00 | 0.00 | 0.00 | 54 | 1017.6 |
| 20260507183017 | 63 | 158 | 4.0 | 9.0 | 0.00 | 0.00 | 0.00 | 55 | 1017.5 |
| 20260507182557 | 62 | 0 | 3.0 | 9.0 | 0.00 | 0.00 | 0.00 | 60 | 1017.6 |
| 20260507181517 | 62 | 315 | 5.0 | 12.0 | 0.00 | 0.00 | 0.00 | 58 | 1017.4 |
| 20260507180517 | 61 | 293 | 4.0 | 15.0 | 0.00 | 0.00 | 0.00 | 61 | 1017.4 |
| 20260507175517 | 61 | 270 | 5.0 | 12.0 | 0.00 | 0.00 | 0.00 | 59 | 1017.3 |
| 20260507174517 | 61 | 270 | 4.0 | 11.0 | 0.00 | 0.00 | 0.00 | 61 | 1017.5 |
| 20260507173557 | 60 | 270 | 4.0 | 14.0 | 0.00 | 0.00 | 0.00 | 62 | 1017.6 |
| 20260507172517 | 60 | 270 | 4.0 | 11.0 | 0.00 | 0.00 | 0.00 | 62 | 1017.8 |
| 20260507171517 | 59 | 270 | 4.0 | 12.0 | 0.00 | 0.00 | 0.00 | 65 | 1018.1 |
| 20260507170517 | 59 | 270 | 5.0 | 15.0 | 0.00 | 0.00 | 0.00 | 64 | 1018.1 |
| 20260507165516 | 58 | 158 | 3.0 | 10.0 | 0.00 | 0.00 | 0.00 | 66 | 1018.3 |
| 20260507164536 | 59 | 270 | 3.0 | 10.0 | 0.00 | 0.00 | 0.00 | 67 | 1018.0 |
| 20260507164017 | 58 | 293 | 3.0 | 6.0 | 0.00 | 0.00 | 0.00 | 68 | 1018.3 |
| 20260507163017 | 57 | 270 | 3.0 | 7.0 | 0.00 | 0.00 | 0.00 | 69 | 1018.5 |
| 20260507162016 | 57 | 270 | 5.0 | 13.0 | 0.00 | 0.00 | 0.00 | 67 | 1018.4 |
| 20260507161017 | 57 | 270 | 5.0 | 13.0 | 0.00 | 0.00 | 0.00 | 71 | 1018.4 |
| 20260507160018 | 57 | 270 | 3.0 | 18.0 | 0.00 | 0.00 | 0.00 | 73 | 1018.4 |
| 20260507155017 | 56 | 293 | 4.0 | 13.0 | 0.00 | 0.00 | 0.00 | 72 | 1018.5 |
| 20260507154037 | 56 | 270 | 4.0 | 15.0 | 0.00 | 0.00 | 0.00 | 72 | 1018.6 |
| 20260507153017 | 55 | 293 | 5.0 | 12.0 | 0.00 | 0.00 | 0.00 | 74 | 1018.4 |
| 20260507152023 | 55 | 338 | 4.0 | 13.0 | 0.00 | 0.00 | 0.00 | 75 | 1018.5 |
| 20260507151037 | 55 | 293 | 4.0 | 15.0 | 0.00 | 0.00 | 0.00 | 75 | 1018.7 |
| 20260507150036 | 55 | 315 | 3.0 | 13.0 | 0.00 | 0.00 | 0.00 | 76 | 1018.7 |
| 20260507145017 | 54 | 293 | 4.0 | 11.0 | 0.00 | 0.00 | 0.00 | 76 | 1018.9 |
| 20260507144037 | 54 | 225 | 1.0 | 3.0 | 0.00 | 0.00 | 0.00 | 78 | 1018.8 |
| 20260507143018 | 53 | 203 | 1.0 | 4.0 | 0.00 | 0.00 | 0.00 | 79 | 1018.9 |
| 20260507142017 | 52 | 248 | 4.0 | 11.0 | 0.00 | 0.00 | 0.00 | 80 | 1018.8 |
| 20260507141016 | 52 | 293 | 3.0 | 9.0 | 0.00 | 0.00 | 0.00 | 81 | 1018.6 |
| 20260507140016 | 52 | 0 | 3.0 | 13.0 | 0.00 | 0.00 | 0.00 | 80 | 1018.4 |
| 20260507135057 | 52 | 293 | 5.0 | 14.0 | 0.00 | 0.00 | 0.00 | 80 | 1018.2 |
| 20260507134016 | 52 | 270 | 4.0 | 12.0 | 0.00 | 0.00 | 0.00 | 81 | 1018.1 |
| 20260507133017 | 52 | 270 | 2.0 | 6.0 | 0.00 | 0.00 | 0.00 | 81 | 1018.1 |
| 20260507132016 | 52 | 270 | 3.0 | 7.0 | 0.00 | 0.00 | 0.00 | 81 | 1018.1 |
| 20260507131016 | 52 | 270 | 4.0 | 13.0 | 0.00 | 0.00 | 0.00 | 81 | 1018.3 |
| 20260507130016 | 52 | 293 | 3.0 | 9.0 | 0.00 | 0.00 | 0.00 | 81 | 1018.2 |
| 20260507125016 | 52 | 270 | 5.0 | 13.0 | 0.00 | 0.00 | 0.00 | 81 | 1018.1 |
| 20260507124016 | 52 | 203 | 2.0 | 5.0 | 0.00 | 0.00 | 0.00 | 81 | 1018.2 |
| 20260507123016 | 53 | 270 | 3.0 | 11.0 | 0.00 | 0.00 | 0.00 | 81 | 1018.0 |
| 20260507122016 | 53 | 270 | 3.0 | 11.0 | 0.00 | 0.00 | 0.00 | 80 | 1018.2 |
| 20260507121016 | 53 | 293 | 3.0 | 7.0 | 0.00 | 0.00 | 0.00 | 80 | 1018.2 |
| 20260507120016 | 53 | 315 | 4.0 | 11.0 | 0.00 | 0.00 | 0.00 | 80 | 1018.2 |
| 20260507115016 | 53 | 293 | 3.0 | 7.0 | 0.00 | 0.00 | 0.00 | 80 | 1018.0 |
| 20260507114016 | 54 | 23 | 2.0 | 6.0 | 0.00 | 0.00 | 0.00 | 79 | 1018.1 |
| 20260507113016 | 54 | 293 | 4.0 | 10.0 | 0.00 | 0.00 | 0.00 | 79 | 1018.0 |
| 20260507112055 | 53 | 270 | 4.0 | 12.0 | 0.00 | 0.00 | 0.00 | 80 | 1017.8 |
| 20260507111017 | 54 | 270 | 3.0 | 7.0 | 0.00 | 0.00 | 0.00 | 80 | 1017.8 |
| 20260507110016 | 54 | 270 | 3.0 | 7.0 | 0.00 | 0.00 | 0.00 | 79 | 1017.8 |
| 20260507105016 | 54 | 248 | 3.0 | 9.0 | 0.00 | 0.00 | 0.00 | 80 | 1017.6 |
| 20260507104016 | 54 | 248 | 4.0 | 14.0 | 0.00 | 0.00 | 0.00 | 80 | 1017.6 |
| 20260507103017 | 54 | 270 | 5.0 | 13.0 | 0.00 | 0.00 | 0.00 | 79 | 1017.6 |
| 20260507102036 | 54 | 158 | 3.0 | 12.0 | 0.00 | 0.00 | 0.00 | 79 | 1017.7 |
| 20260507101036 | 55 | 293 | 4.0 | 10.0 | 0.00 | 0.00 | 0.00 | 79 | 1017.7 |
| 20260507100015 | 55 | 270 | 5.0 | 17.0 | 0.00 | 0.00 | 0.00 | 79 | 1017.7 |
| 20260507095016 | 55 | 293 | 3.0 | 6.0 | 0.00 | 0.00 | 0.00 | 79 | 1017.7 |
| 20260507094016 | 55 | 270 | 3.0 | 7.0 | 0.00 | 0.00 | 0.00 | 79 | 1017.7 |
| 20260507093037 | 55 | 293 | 3.0 | 9.0 | 0.00 | 0.00 | 0.00 | 79 | 1017.8 |
| 20260507092016 | 55 | 225 | 3.0 | 10.0 | 0.00 | 0.00 | 0.00 | 79 | 1017.8 |
| 20260507091016 | 55 | 270 | 4.0 | 12.0 | 0.00 | 0.00 | 0.00 | 79 | 1017.8 |
| 20260507090016 | 55 | 203 | 3.0 | 13.0 | 0.00 | 0.00 | 0.00 | 79 | 1017.8 |
| 20260507085015 | 55 | 270 | 3.0 | 13.0 | 0.00 | 0.00 | 0.00 | 79 | 1017.9 |
| 20260507084016 | 55 | 270 | 3.0 | 12.0 | 0.00 | 0.00 | 0.00 | 79 | 1017.9 |
| 20260507083016 | 55 | 270 | 4.0 | 11.0 | 0.00 | 0.00 | 0.00 | 79 | 1017.9 |
| 20260507082015 | 56 | 248 | 4.0 | 14.0 | 0.00 | 0.00 | 0.00 | 79 | 1017.9 |
| 20260507081035 | 56 | 315 | 3.0 | 12.0 | 0.00 | 0.00 | 0.00 | 79 | 1017.8 |
| 20260507080037 | 56 | 248 | 5.0 | 13.0 | 0.00 | 0.00 | 0.00 | 78 | 1017.7 |
| 20260507075017 | 57 | 270 | 6.0 | 18.0 | 0.00 | 0.00 | 0.00 | 79 | 1017.6 |
| 20260507074016 | 57 | 270 | 7.0 | 14.0 | 0.00 | 0.00 | 0.00 | 79 | 1017.8 |
| 20260507073017 | 56 | 270 | 5.0 | 19.0 | 0.00 | 0.00 | 0.00 | 79 | 1017.7 |
| 20260507072017 | 56 | 293 | 4.0 | 10.0 | 0.00 | 0.00 | 0.00 | 79 | 1017.8 |
| 20260507071017 | 57 | 248 | 5.0 | 13.0 | 0.00 | 0.00 | 0.00 | 79 | 1017.8 |
| 20260507070017 | 57 | 293 | 5.0 | 15.0 | 0.00 | 0.00 | 0.00 | 79 | 1017.8 |
| 20260507065017 | 57 | 270 | 5.0 | 14.0 | 0.00 | 0.00 | 0.00 | 79 | 1018.0 |
| 20260507064017 | 58 | 270 | 4.0 | 10.0 | 0.00 | 0.00 | 0.00 | 78 | 1018.0 |
| 20260507063017 | 58 | 203 | 4.0 | 10.0 | 0.00 | 0.00 | 0.00 | 79 | 1018.0 |
| 20260507062037 | 58 | 270 | 4.0 | 9.0 | 0.00 | 0.00 | 0.00 | 78 | 1018.1 |
| 20260507061037 | 58 | 293 | 3.0 | 7.0 | 0.00 | 0.00 | 0.00 | 79 | 1018.1 |
| 20260507060017 | 58 | 293 | 3.0 | 11.0 | 0.00 | 0.00 | 0.00 | 78 | 1018.0 |
| 20260507055017 | 58 | 293 | 2.0 | 6.0 | 0.00 | 0.00 | 0.00 | 78 | 1018.1 |
| 20260507054035 | 59 | 293 | 4.0 | 14.0 | 0.00 | 0.00 | 0.00 | 78 | 1018.2 |
| 20260507053017 | 59 | 293 | 3.0 | 15.0 | 0.00 | 0.00 | 0.00 | 77 | 1018.2 |
| 20260507052017 | 59 | 180 | 2.0 | 11.0 | 0.00 | 0.00 | 0.00 | 77 | 1018.3 |
| 20260507051017 | 60 | 270 | 4.0 | 9.0 | 0.00 | 0.00 | 0.00 | 77 | 1018.2 |
| 20260507050017 | 60 | 270 | 3.0 | 10.0 | 0.00 | 0.00 | 0.00 | 77 | 1018.4 |
| 20260507045017 | 60 | 270 | 4.0 | 14.0 | 0.00 | 0.00 | 0.00 | 76 | 1018.2 |
| 20260507044017 | 60 | 270 | 6.0 | 16.0 | 0.00 | 0.00 | 0.00 | 76 | 1018.1 |
| 20260507043037 | 61 | 270 | 5.0 | 16.0 | 0.00 | 0.00 | 0.00 | 76 | 1018.2 |